Flag for San Marino Weather past 2 weeks in San Marino, San Marino

Now
82 °F

Passing clouds.


Feels Like: 85 °F
Forecast: 60 / 75 °F
Wind: 8 mph from Northeast

Location: Rimini Airport

Current Time: Sep 3, 2015 at 3:25:58 PM

Latest Report: Sep 3, 2015 at 2:45 PM


Visibility: N/A

Pressure: 29.89 "Hg (27.71 "Hg at 666m altitude)

Humidity: 62%

Dew point: 68 °F

Location of San MarinoLocation

Historic Weather in San Marino — Graph

°F

San Marino temperature yesterday

Maximum temperature yesterday: 90 °F (at 12:45 PM)
Minimum temperature yesterday: 75 °F (at 2:15 AM)
Average temperature yesterday: 80 °F

Past Weeks' High & Low Weather Summary

 TemperatureHumidityPressure
High90 °F (Sep 2, 12:45 PM)88% (Aug 24, 8:15 AM)30.18 "Hg (Aug 24, 8:15 AM)
Low63 °F (Aug 23, 4:15 AM)42% (Aug 23, 10:45 AM)29.83 "Hg (Sep 2, 5:45 AM)
Average76 °F73%30.00 "Hg
* Reported Aug 19 1:15 PM — Sep 3 1:45 PM, San Marino, Weather by CustomWeather, © 2015

Note: Actual official high and low records may vary slightly from our data, if they occured in-between our weather recording intervals... More about our weather records

Advertising

San Marino weather history for previous 24 hours

 ConditionsComfort  
Time TempWeatherWind HumidityBarometerVisibility
1:45 PM
Thu, Sep 3
82 °FPassing clouds.8 mph58%29.89 "HgN/A
1:15 PM84 °FPassing clouds.8 mph55%29.89 "HgN/A
12:45 PM84 °FPassing clouds.9 mph55%29.89 "HgN/A
12:15 PM86 °FPassing clouds.10 mph55%29.89 "HgN/A
11:45 AM86 °FPassing clouds.6 mph46%29.89 "HgN/A
11:15 AM84 °FPassing clouds.3 mph48%29.89 "HgN/A
10:45 AM82 °FPassing clouds.5 mph51%29.89 "HgN/A
10:15 AM82 °FPassing clouds.1 mph55%29.89 "HgN/A
9:45 AM81 °FPassing clouds.6 mph58%29.86 "HgN/A
9:15 AM79 °FPassing clouds.8 mph58%29.86 "HgN/A
8:45 AM79 °FPassing clouds.9 mph61%29.86 "HgN/A
8:15 AM75 °FPassing clouds.8 mph65%29.86 "HgN/A
7:45 AM72 °FPassing clouds.5 mph73%29.86 "HgN/A
7:15 AM72 °FPassing clouds.6 mph73%29.86 "HgN/A
6:45 AM72 °FPassing clouds.2 mph69%29.86 "HgN/A
6:15 AM72 °FPassing clouds.1 mph69%29.86 "HgN/A
5:45 AM72 °FPassing clouds.3 mph69%29.86 "HgN/A
5:15 AM72 °FClear.5 mph69%29.86 "Hg10 mi
4:45 AM72 °FClear.3 mph69%29.86 "Hg10 mi
4:15 AM75 °FClear.6 mph61%29.86 "Hg10 mi
3:45 AM75 °FClear.6 mph61%29.86 "Hg10 mi
2:45 AM77 °FClear.5 mph61%29.86 "Hg10 mi
2:15 AM77 °FClear.6 mph61%29.86 "Hg10 mi
1:15 AM75 °FClear.3 mph65%29.86 "Hg10 mi
12:45 AM75 °FClear.5 mph69%29.86 "Hg10 mi
12:15 AM75 °FClear.6 mph69%29.86 "Hg10 mi
11:45 PM
Wed, Sep 2
77 °FClear.No wind69%29.86 "Hg10 mi
11:15 PM77 °FClear.No wind69%29.86 "Hg10 mi
10:45 PM77 °FClear.2 mph69%29.86 "Hg10 mi
10:15 PM77 °FClear.3 mph74%29.86 "Hg10 mi
9:45 PM77 °FClear.5 mph79%29.86 "Hg10 mi
9:15 PM79 °FPassing clouds.3 mph84%29.83 "HgN/A
8:45 PM81 °FPassing clouds.3 mph84%29.83 "HgN/A
8:15 PM81 °FPassing clouds.2 mph84%29.83 "HgN/A
7:45 PM81 °FPassing clouds.No wind84%29.83 "HgN/A
7:15 PM82 °FPassing clouds.7 mph79%29.83 "HgN/A
6:45 PM82 °FScattered clouds.12 mph79%29.83 "HgN/A
6:15 PM82 °FScattered clouds.13 mph79%29.83 "HgN/A
5:45 PM84 °FScattered clouds.12 mph79%29.83 "HgN/A
5:15 PM84 °FScattered clouds.14 mph74%29.83 "HgN/A
4:45 PM86 °FScattered clouds.14 mph66%29.83 "HgN/A
4:15 PM84 °FScattered clouds.15 mph66%29.83 "HgN/A
3:45 PM84 °FScattered clouds.15 mph66%29.83 "HgN/A
3:15 PM84 °FScattered clouds.17 mph66%29.83 "HgN/A
Weather by CustomWeather, © 2015

See weather overviewHow to use our weather pages